TimeEST,TemperatureF,Dew PointF,Humidity,Sea Level PressureIn,VisibilityMPH,Wind Direction,Wind SpeedMPH,Gust SpeedMPH,PrecipitationIn,Events,Conditions,WindDirDegrees,DateUTC
12:51 AM,48.9,42.1,77,29.88,10.0,SE,4.6,-,N/A,,Overcast,140,2013-12-04 05:51:00
1:51 AM,50.0,42.1,74,29.87,10.0,SSE,4.6,-,N/A,,Overcast,150,2013-12-04 06:51:00
2:51 AM,48.9,42.1,77,29.86,10.0,SE,6.9,-,N/A,,Mostly Cloudy,140,2013-12-04 07:51:00
3:51 AM,50.0,42.1,74,29.86,10.0,SE,6.9,-,N/A,,Mostly Cloudy,140,2013-12-04 08:51:00
4:51 AM,48.9,42.1,77,29.88,10.0,Calm,Calm,-,N/A,,Overcast,0,2013-12-04 09:51:00
5:51 AM,48.0,42.1,80,29.90,9.0,Calm,Calm,-,N/A,,Overcast,0,2013-12-04 10:51:00
6:51 AM,48.9,42.1,77,29.91,9.0,SE,3.5,-,N/A,,Overcast,140,2013-12-04 11:51:00
7:51 AM,48.9,43.0,80,29.89,8.0,ESE,5.8,-,N/A,,Overcast,110,2013-12-04 12:51:00
8:51 AM,50.0,44.1,80,29.90,8.0,ESE,4.6,-,N/A,,Overcast,110,2013-12-04 13:51:00
9:51 AM,54.0,46.0,75,29.92,8.0,SE,6.9,-,N/A,,Overcast,140,2013-12-04 14:51:00
10:39 AM,55.4,46.4,72,29.91,8.0,SSE,8.1,-,N/A,,Overcast,150,2013-12-04 15:39:00
10:51 AM,55.0,46.9,74,29.91,8.0,SSE,8.1,-,N/A,,Overcast,150,2013-12-04 15:51:00
11:51 AM,57.0,48.0,72,29.88,10.0,SE,9.2,-,N/A,,Overcast,140,2013-12-04 16:51:00
12:51 PM,57.9,48.0,70,29.85,10.0,SE,8.1,-,N/A,,Overcast,140,2013-12-04 17:51:00
1:51 PM,60.1,48.0,64,29.81,10.0,SE,8.1,-,N/A,,Overcast,140,2013-12-04 18:51:00
2:51 PM,61.0,48.9,64,29.78,10.0,SE,9.2,-,N/A,,Overcast,140,2013-12-04 19:51:00
3:51 PM,62.1,50.0,65,29.79,10.0,SE,6.9,-,N/A,,Overcast,130,2013-12-04 20:51:00
4:51 PM,62.1,50.0,65,29.78,10.0,SE,8.1,-,N/A,,Overcast,140,2013-12-04 21:51:00
5:51 PM,62.1,51.1,67,29.78,10.0,SE,8.1,-,N/A,,Overcast,140,2013-12-04 22:51:00
6:51 PM,62.1,51.1,67,29.78,10.0,SE,12.7,-,N/A,,Overcast,140,2013-12-04 23:51:00
7:51 PM,62.1,50.0,65,29.78,10.0,SE,11.5,-,N/A,,Mostly Cloudy,140,2013-12-05 00:51:00
8:51 PM,62.1,50.0,65,29.78,10.0,SSE,9.2,-,N/A,,Scattered Clouds,160,2013-12-05 01:51:00
9:51 PM,61.0,50.0,67,29.77,10.0,SSE,8.1,-,N/A,,Scattered Clouds,150,2013-12-05 02:51:00
10:51 PM,60.1,50.0,69,29.78,10.0,South,8.1,-,N/A,,Partly Cloudy,170,2013-12-05 03:51:00
11:51 PM,60.1,51.1,72,29.78,10.0,South,9.2,-,N/A,,Overcast,180,2013-12-05 04:51:00